QPF
0.00 0.00 0.00 0.00 0.00 0.00 0.00 0.00 0.00 0.00 0.00 0.00 0.00 0.00 0.00 0.00 0.00 0.00 0.00 0.00 0.00 0.00 0.00 0.00 0.00 0.00 0.00 0.00 0.00 0.00 0.00 0.00 0.00 0.00 0.00 0.00 0.00 0.00 0.00 0.00 0.00 0.00 0.00 0.00
0.00 0.00 0.00 0.00 0.00 0.00 0.00 0.00 0.00 0.00 0.00 0.00 0.00 0.00 0.00 0.00 0.00 0.00 0.00 0.00 0.00 0.00 0.00 0.00 0.00 0.00 0.00 0.00 0.00 0.00 0.00 0.00 0.00 0.00 0.00 0.00 0.00 0.00 0.00 0.00 0.00 0.00 0.00 0.00
0.00 0.00 0.00 0.00 0.00 0.00 0.00 0.00 0.00 0.00 0.00 0.00 0.00 0.00 0.00 0.00 0.00 0.00 0.00 0.00 0.00 0.00 0.00 0.00 0.00 0.00 0.00 0.00 0.00 0.00 0.00 0.00 0.00 0.00 0.00 0.00 0.00 0.00 0.00 0.00 0.00 0.00 0.00 0.00
0.00 0.00 0.00 0.00 0.00 0.00 0.00 0.00 0.00 0.00 0.00 0.00 0.00 0.00 0.00 0.00 0.00 0.00 0.00 0.00 0.00 0.00 0.00 0.00 0.00 0.00 0.00 0.00 0.00 0.00 0.00 0.00 0.00 0.00 0.00 0.00 0.00 0.00 0.00 0.00 0.00 0.00 0.00 0.00
0.00 0.00 0.00 0.00 0.00 0.00 0.00 0.00 0.00 0.00 0.00 0.00 0.00 0.00 0.00 0.00 0.00 0.00 0.00 0.00 0.00 0.00 0.00 0.00 0.00 0.00 0.00 0.00 0.00 0.00 0.00 0.00 0.00 0.00 0.00 0.00 0.00 0.00 0.00 0.00 0.00 0.00 0.00 0.00
0.00 0.00 0.00 0.00 0.00 0.00 0.00 0.00 0.00 0.00 0.00 0.00 0.00 0.00 0.00 0.00 0.00 0.00 0.00 0.00 0.00 0.00 0.00 0.00 0.00 0.00 0.00 0.00 0.00 0.00 0.00 0.00 0.00 0.00 0.00 0.00 0.00 0.00 0.00 0.00 0.00 0.00 0.00 0.00
0.00 0.00 0.00 0.00 0.00 0.00 0.00 0.00 0.00 0.00 0.00 0.00 0.00 0.00 0.00 0.00 0.00 0.00 0.00 0.00 0.00 0.00 0.00 0.00 0.00 0.00 0.00 0.00 0.00 0.00 0.00 0.00 0.00 0.00 0.00 0.00 0.00 0.00 0.00 0.00 0.00 0.00 0.00 0.00
0.00 0.00 0.00 0.00 0.00 0.00 0.00 0.00 0.00 0.00 0.00 0.00 0.00 0.00 0.00 0.00 0.00 0.00 0.00 0.00 0.00 0.00 0.00 0.00 0.00 0.00 0.00 0.00 0.00 0.00 0.00 0.00 0.00 0.00 0.00 0.00 0.00 0.00 0.00 0.00 0.00 0.00 0.00 0.00
0.00 0.00 0.00 0.00 0.00 0.00 0.00 0.00 0.00 0.00 0.00 0.00 0.00 0.00 0.00 0.00 0.00 0.00 0.00 0.00 0.00 0.00 0.00 0.00 0.00 0.00 0.00 0.00 0.00 0.00 0.00 0.00 0.00 0.00 0.00 0.00 0.00 0.00 0.00 0.00 0.00 0.00 0.00 0.00
0.00 0.00 0.00 0.00 0.00 0.00 0.00 0.00 0.00 0.00 0.00 0.00 0.00 0.00 0.00 0.00 0.00 0.00 0.00 0.00 0.00 0.00 0.00 0.00 0.00 0.00 0.00 0.00 0.00 0.00 0.00 0.00 0.00 0.00 0.00 0.00 0.00 0.00 0.00 0.00 0.00 0.00 0.00 0.00
0.00 0.00 0.00 0.00 0.00 0.00 0.00 0.00 0.00 0.00 0.00 0.00 0.00 0.00 0.00 0.00 0.00 0.00 0.00 0.00 0.00 0.00 0.00 0.00 0.00 0.00 0.00 0.00 0.00 0.00 0.00 0.00 0.00 0.00 0.00 0.00 0.00 0.00 0.00 0.00 0.00 0.00 0.00 0.00
0.00 0.00 0.00 0.00 0.00 0.00 0.00 0.00 0.00 0.00 0.00 0.00 0.00 0.00 0.00 0.00 0.00 0.00 0.00 0.00 0.00 0.00 0.00 0.00 0.00 0.00 0.00 0.00 0.00 0.00 0.00 0.00 0.00 0.00 0.00 0.00 0.00 0.00 0.00 0.00 0.00 0.00 0.00 0.00
0.00 0.00 0.00 0.00 0.00 0.00 0.00 0.00 0.00 0.00 0.00 0.00 0.00 0.00 0.00 0.00 0.00 0.00 0.00 0.00 0.00 0.00 0.00 0.00 0.00 0.00 0.00 0.00 0.00 0.00 0.00 0.00 0.00 0.00 0.00 0.00 0.00 0.00 0.00 0.00 0.00 0.00 0.00 0.00
0.00 0.00 0.00 0.00 0.00 0.00 0.00 0.00 0.00 0.00 0.00 0.00 0.00 0.00 0.00 0.00 0.00 0.00 0.00 0.00 0.00 0.00 0.00 0.00 0.00 0.00 0.00 0.00 0.00 0.00 0.00 0.00 0.00 0.00 0.00 0.00 0.00 0.00 0.00 0.00 0.00 0.00 0.00 0.00
0.00 0.00 0.00 0.00 0.00 0.00 0.00 0.00 0.00 0.00 0.00 0.00 0.00 0.00 0.00 0.00 0.00 0.00 0.00 0.00 0.00 0.00 0.00 0.00 0.00 0.00 0.00 0.00 0.00 0.00 0.00 0.00 0.00 0.00 0.00 0.00 0.00 0.00 0.00 0.00 0.00 0.00 0.00 0.00
0.00 0.00 0.00 0.00 0.00 0.00 0.00 0.00 0.00 0.00 0.00 0.00 0.00 0.00 0.00 0.00 0.00 0.00 0.00 0.00 0.00 0.00 0.00 0.00 0.00 0.00 0.00 0.00 0.00 0.00 0.00 0.00 0.00 0.00 0.00 0.00 0.00 0.00 0.00 0.00 0.00 0.00 0.00 0.00
0.00 0.00 0.00 0.00 0.00 0.00 0.00 0.00 0.00 0.00 0.00 0.00 0.00 0.00 0.00 0.00 0.00 0.00 0.00 0.00 0.00 0.00 0.00 0.00 0.00 0.00 0.00 0.00 0.00 0.00 0.00 0.00 0.00 0.00 0.00 0.00 0.00 0.00 0.00 0.00 0.00 0.00 0.00 0.00
0.00 0.00 0.00 0.00 0.00 0.00 0.00 0.00 0.00 0.00 0.00 0.00 0.00 0.00 0.00 0.00 0.00 0.00 0.00 0.00 0.00 0.00 0.00 0.00 0.00 0.00 0.00 0.00 0.00 0.00 0.00 0.00 0.00 0.00 0.00 0.00 0.00 0.00 0.00 0.00 0.00 0.00 0.00 0.00
0.00 0.00 0.00 0.00 0.00 0.00 0.00 0.00 0.00 0.00 0.00 0.00 0.00 0.00 0.00 0.00 0.00 0.00 0.00 0.00 0.00 0.00 0.00 0.00 0.00 0.00 0.00 0.00 0.00 0.00 0.00 0.00 0.00 0.00 0.00 0.00 0.00 0.00 0.00 0.00 0.00 0.00 0.00 0.00
0.00 0.00 0.00 0.00 0.00 0.00 0.00 0.00 0.00 0.00 0.00 0.00 0.00 0.00 0.00 0.00 0.00 0.00 0.00 0.00 0.00 0.00 0.00 0.00 0.00 0.00 0.00 0.00 0.00 0.00 0.00 0.00 0.00 0.00 0.00 0.00 0.00 0.00 0.00 0.00 0.00 0.00 0.00 0.00
0.00 0.00 0.00 0.00 0.00 0.00 0.00 0.00 0.00 0.00 0.00 0.00 0.00 0.00 0.00 0.00 0.00 0.00 0.00 0.00 0.00 0.00 0.00 0.00 0.00 0.00 0.00 0.00 0.00 0.00 0.00 0.00 0.00 0.00 0.00 0.00 0.00 0.00 0.00 0.00 0.00 0.00 0.00 0.00
0.00 0.00 0.00 0.00 0.00 0.00 0.00 0.00 0.00 0.00 0.00 0.00 0.00 0.00 0.00 0.00 0.00 0.00 0.00 0.00 0.00 0.00 0.00 0.00 0.00 0.00 0.00 0.00 0.00 0.00 0.00 0.00 0.00 0.00 0.00 0.00 0.00 0.00 0.00 0.00 0.00 0.00 0.00 0.00
0.00 0.00 0.00 0.00 0.00 0.00 0.00 0.00 0.00 0.00 0.00 0.00 0.00 0.00 0.00 0.00 0.00 0.00 0.00 0.00 0.00 0.00 0.00 0.00 0.00 0.00 0.00 0.00 0.00 0.00 0.00 0.00 0.00 0.00 0.00 0.00 0.00 0.00 0.00 0.00 0.00 0.00 0.00 0.00
0.00 0.00 0.00 0.00 0.00 0.00 0.00 0.00 0.00 0.00 0.00 0.00 0.00 0.00 0.00 0.00 0.00 0.00 0.00 0.00 0.00 0.00 0.00 0.00 0.00 0.00 0.00 0.00 0.00 0.00 0.00 0.00 0.00 0.00 0.00 0.00 0.00 0.00 0.00 0.00 0.00 0.00 0.00 0.00
0.00 0.00 0.00 0.00 0.00 0.00 0.00 0.00 0.00 0.00 0.00 0.00 0.00 0.00 0.00 0.00 0.00 0.00 0.00 0.00 0.00 0.00 0.00 0.00 0.00 0.00 0.00 0.00 0.00 0.00 0.00 0.00 0.00 0.00 0.00 0.00 0.00 0.00 0.00 0.00 0.00 0.00 0.00 0.00
0.00 0.00 0.00 0.00 0.00 0.00 0.00 0.00 0.00 0.00 0.00 0.00 0.00 0.00 0.00 0.00 0.00 0.00 0.00 0.00 0.00 0.00 0.00 0.00 0.00 0.00 0.00 0.00 0.00 0.00 0.00 0.00 0.00 0.00 0.00 0.00 0.00 0.00 0.00 0.00 0.00 0.00 0.00 0.00
MSLP
1018.99 1019.48 1019.98 1020.46 1020.88 1021.25 1021.54 1021.78 1021.97 1022.12 1022.25 1022.38 1022.50 1022.62 1022.73 1022.82 1022.89 1022.95 1022.99 1023.06 1023.18 1023.39 1023.73 1024.22 1024.88 1025.68 1026.58 1027.53 1028.46 1029.30 1029.99 1030.50 1030.81 1030.94 1030.94 1030.85 1030.72 1030.62 1030.55 1030.53 1030.55 1030.58 1030.58 1030.53
1019.52 1019.93 1020.32 1020.66 1020.96 1021.22 1021.43 1021.61 1021.77 1021.91 1022.04 1022.16 1022.26 1022.33 1022.36 1022.35 1022.31 1022.26 1022.22 1022.23 1022.33 1022.54 1022.92 1023.46 1024.18 1025.04 1026.00 1027.00 1027.98 1028.87 1029.61 1030.18 1030.56 1030.77 1030.84 1030.81 1030.72 1030.62 1030.54 1030.48 1030.44 1030.41 1030.36 1030.27
1019.98 1020.31 1020.61 1020.86 1021.07 1021.24 1021.40 1021.55 1021.69 1021.82 1021.93 1022.00 1022.03 1022.00 1021.91 1021.78 1021.62 1021.46 1021.36 1021.34 1021.45 1021.71 1022.16 1022.79 1023.59 1024.51 1025.52 1026.56 1027.56 1028.48 1029.26 1029.88 1030.32 1030.61 1030.75 1030.77 1030.73 1030.64 1030.53 1030.42 1030.32 1030.22 1030.11 1029.97
1020.34 1020.61 1020.84 1021.03 1021.19 1021.34 1021.48 1021.62 1021.75 1021.86 1021.92 1021.91 1021.82 1021.65 1021.40 1021.11 1020.81 1020.56 1020.40 1020.39 1020.55 1020.91 1021.47 1022.21 1023.10 1024.10 1025.15 1026.21 1027.22 1028.14 1028.93 1029.57 1030.06 1030.40 1030.60 1030.69 1030.68 1030.60 1030.47 1030.32 1030.15 1029.97 1029.79 1029.60
1020.59 1020.83 1021.02 1021.18 1021.33 1021.48 1021.63 1021.79 1021.92 1022.00 1022.00 1021.88 1021.64 1021.29 1020.84 1020.37 1019.92 1019.57 1019.38 1019.39 1019.64 1020.12 1020.82 1021.70 1022.71 1023.78 1024.87 1025.94 1026.93 1027.82 1028.59 1029.23 1029.74 1030.12 1030.37 1030.50 1030.53 1030.46 1030.32 1030.13 1029.91 1029.66 1029.42 1029.17
1020.75 1020.95 1021.13 1021.29 1021.46 1021.65 1021.85 1022.04 1022.18 1022.23 1022.15 1021.90 1021.49 1020.93 1020.27 1019.60 1019.00 1018.55 1018.34 1018.39 1018.74 1019.36 1020.22 1021.25 1022.37 1023.52 1024.65 1025.70 1026.66 1027.50 1028.22 1028.83 1029.33 1029.73 1030.01 1030.18 1030.25 1030.21 1030.07 1029.86 1029.60 1029.31 1029.01 1028.72
1020.84 1021.02 1021.18 1021.37 1021.58 1021.82 1022.07 1022.31 1022.47 1022.49 1022.32 1021.94 1021.35 1020.59 1019.72 1018.86 1018.11 1017.58 1017.34 1017.44 1017.89 1018.65 1019.66 1020.83 1022.07 1023.29 1024.44 1025.47 1026.38 1027.15 1027.81 1028.37 1028.84 1029.23 1029.53 1029.74 1029.84 1029.83 1029.72 1029.52 1029.24 1028.93 1028.60 1028.28
1020.88 1021.04 1021.20 1021.40 1021.66 1021.95 1022.27 1022.54 1022.72 1022.71 1022.47 1021.97 1021.22 1020.27 1019.22 1018.19 1017.31 1016.70 1016.45 1016.59 1017.13 1018.01 1019.15 1020.44 1021.77 1023.05 1024.21 1025.22 1026.06 1026.77 1027.35 1027.84 1028.27 1028.64 1028.95 1029.19 1029.34 1029.37 1029.30 1029.12 1028.86 1028.55 1028.22 1027.89
1020.91 1021.04 1021.19 1021.41 1021.69 1022.02 1022.38 1022.69 1022.86 1022.83 1022.54 1021.94 1021.06 1019.97 1018.78 1017.62 1016.64 1015.98 1015.71 1015.88 1016.48 1017.44 1018.68 1020.06 1021.46 1022.77 1023.94 1024.92 1025.71 1026.35 1026.86 1027.29 1027.67 1028.02 1028.33 1028.59 1028.77 1028.86 1028.83 1028.70 1028.48 1028.20 1027.88 1027.55
1020.95 1021.05 1021.18 1021.38 1021.66 1022.01 1022.37 1022.68 1022.85 1022.79 1022.45 1021.78 1020.83 1019.66 1018.38 1017.14 1016.11 1015.41 1015.13 1015.31 1015.95 1016.97 1018.25 1019.68 1021.11 1022.44 1023.60 1024.56 1025.31 1025.90 1026.35 1026.74 1027.09 1027.41 1027.72 1027.99 1028.21 1028.34 1028.36 1028.28 1028.11 1027.86 1027.57 1027.26
1021.01 1021.07 1021.18 1021.34 1021.59 1021.90 1022.22 1022.50 1022.62 1022.53 1022.14 1021.45 1020.46 1019.26 1017.96 1016.71 1015.67 1014.97 1014.69 1014.88 1015.52 1016.54 1017.84 1019.27 1020.70 1022.03 1023.18 1024.12 1024.86 1025.42 1025.86 1026.22 1026.55 1026.86 1027.16 1027.44 1027.67 1027.83 1027.90 1027.87 1027.74 1027.53 1027.27 1026.96
1021.11 1021.14 1021.19 1021.29 1021.47 1021.69 1021.93 1022.12 1022.17 1022.02 1021.59 1020.88 1019.90 1018.73 1017.47 1016.27 1015.27 1014.59 1014.33 1014.52 1015.14 1016.13 1017.39 1018.78 1020.19 1021.50 1022.65 1023.60 1024.35 1024.92 1025.37 1025.74 1026.07 1026.38 1026.68 1026.96 1027.20 1027.37 1027.46 1027.45 1027.35 1027.17 1026.92 1026.62
1021.24 1021.23 1021.23 1021.25 1021.31 1021.41 1021.51 1021.57 1021.51 1021.27 1020.79 1020.08 1019.14 1018.03 1016.86 1015.75 1014.83 1014.21 1013.98 1014.16 1014.74 1015.68 1016.87 1018.20 1019.56 1020.85 1021.99 1022.96 1023.75 1024.38 1024.87 1025.29 1025.65 1025.98 1026.28 1026.55 1026.78 1026.95 1027.03 1027.02 1026.93 1026.75 1026.50 1026.19
1021.39 1021.36 1021.29 1021.21 1021.14 1021.08 1021.00 1020.88 1020.67 1020.31 1019.78 1019.06 1018.17 1017.15 1016.10 1015.12 1014.31 1013.78 1013.58 1013.75 1014.29 1015.15 1016.25 1017.50 1018.79 1020.04 1021.19 1022.20 1023.05 1023.76 1024.34 1024.83 1025.25 1025.61 1025.93 1026.19 1026.40 1026.54 1026.60 1026.58 1026.46 1026.27 1026.01 1025.68
1021.55 1021.50 1021.37 1021.19 1020.97 1020.72 1020.44 1020.12 1019.73 1019.23 1018.62 1017.89 1017.05 1016.14 1015.22 1014.38 1013.71 1013.26 1013.11 1013.28 1013.76 1014.53 1015.52 1016.67 1017.88 1019.10 1020.25 1021.31 1022.24 1023.05 1023.74 1024.33 1024.82 1025.24 1025.58 1025.84 1026.03 1026.14 1026.16 1026.10 1025.96 1025.75 1025.46 1025.10
1021.68 1021.62 1021.43 1021.15 1020.78 1020.34 1019.86 1019.33 1018.75 1018.11 1017.41 1016.66 1015.86 1015.05 1014.27 1013.58 1013.04 1012.69 1012.59 1012.75 1013.18 1013.85 1014.73 1015.77 1016.89 1018.06 1019.21 1020.31 1021.33 1022.25 1023.05 1023.75 1024.33 1024.81 1025.19 1025.46 1025.63 1025.71 1025.70 1025.60 1025.43 1025.19 1024.88 1024.50
1021.73 1021.65 1021.42 1021.05 1020.55 1019.95 1019.28 1018.55 1017.79 1017.01 1016.23 1015.45 1014.70 1013.98 1013.33 1012.78 1012.36 1012.11 1012.06 1012.21 1012.59 1013.16 1013.93 1014.85 1015.88 1016.99 1018.13 1019.26 1020.34 1021.35 1022.27 1023.07 1023.75 1024.29 1024.71 1025.00 1025.17 1025.23 1025.19 1025.08 1024.89 1024.63 1024.31 1023.91
1021.62 1021.54 1021.27 1020.83 1020.24 1019.50 1018.67 1017.79 1016.88 1015.99 1015.14 1014.34 1013.62 1012.99 1012.46 1012.04 1011.74 1011.58 1011.58 1011.73 1012.05 1012.54 1013.20 1014.01 1014.94 1015.97 1017.07 1018.21 1019.33 1020.41 1021.41 1022.30 1023.05 1023.66 1024.12 1024.43 1024.62 1024.68 1024.64 1024.52 1024.34 1024.09 1023.77 1023.39
1021.28 1021.18 1020.90 1020.42 1019.75 1018.93 1018.00 1017.01 1016.00 1015.04 1014.14 1013.35 1012.68 1012.13 1011.70 1011.40 1011.21 1011.14 1011.18 1011.34 1011.62 1012.04 1012.60 1013.30 1014.13 1015.08 1016.12 1017.23 1018.36 1019.47 1020.51 1021.45 1022.26 1022.92 1023.42 1023.76 1023.97 1024.05 1024.03 1023.94 1023.78 1023.56 1023.28 1022.93
1020.66 1020.53 1020.22 1019.72 1019.03 1018.17 1017.19 1016.15 1015.11 1014.12 1013.22 1012.46 1011.84 1011.37 1011.05 1010.85 1010.77 1010.77 1010.86 1011.04 1011.30 1011.66 1012.14 1012.75 1013.48 1014.34 1015.31 1016.36 1017.46 1018.55 1019.60 1020.56 1021.39 1022.08 1022.61 1022.98 1023.22 1023.34 1023.37 1023.32 1023.21 1023.04 1022.81 1022.51
1019.71 1019.55 1019.22 1018.70 1018.01 1017.16 1016.19 1015.16 1014.14 1013.17 1012.31 1011.61 1011.06 1010.68 1010.45 1010.35 1010.35 1010.44 1010.58 1010.78 1011.05 1011.38 1011.80 1012.34 1012.99 1013.76 1014.65 1015.62 1016.66 1017.70 1018.72 1019.65 1020.48 1021.17 1021.72 1022.12 1022.40 1022.56 1022.64 1022.65 1022.61 1022.51 1022.35 1022.12
1018.46 1018.23 1017.87 1017.36 1016.68 1015.87 1014.96 1013.99 1013.03 1012.14 1011.36 1010.72 1010.26 1009.96 1009.82 1009.81 1009.90 1010.05 1010.26 1010.50 1010.78 1011.11 1011.51 1011.99 1012.58 1013.28 1014.08 1014.98 1015.93 1016.91 1017.86 1018.75 1019.54 1020.22 1020.78 1021.20 1021.52 1021.73 1021.87 1021.95 1021.98 1021.95 1021.87 1021.71
1016.96 1016.65 1016.25 1015.73 1015.09 1014.34 1013.51 1012.64 1011.79 1010.99 1010.31 1009.77 1009.39 1009.17 1009.10 1009.17 1009.32 1009.54 1009.80 1010.09 1010.41 1010.76 1011.15 1011.62 1012.17 1012.81 1013.55 1014.36 1015.23 1016.13 1017.01 1017.85 1018.60 1019.26 1019.81 1020.26 1020.61 1020.88 1021.08 1021.22 1021.32 1021.37 1021.35 1021.26
1015.30 1014.90 1014.45 1013.93 1013.33 1012.65 1011.93 1011.17 1010.43 1009.76 1009.18 1008.73 1008.43 1008.28 1008.27 1008.38 1008.59 1008.85 1009.16 1009.50 1009.85 1010.23 1010.65 1011.12 1011.65 1012.26 1012.95 1013.70 1014.50 1015.33 1016.15 1016.93 1017.65 1018.29 1018.84 1019.31 1019.70 1020.02 1020.28 1020.49 1020.66 1020.76 1020.81 1020.78
1013.62 1013.11 1012.61 1012.08 1011.52 1010.93 1010.31 1009.68 1009.07 1008.51 1008.03 1007.66 1007.42 1007.31 1007.33 1007.47 1007.69 1007.98 1008.32 1008.68 1009.07 1009.49 1009.93 1010.42 1010.96 1011.55 1012.21 1012.93 1013.68 1014.45 1015.23 1015.97 1016.67 1017.31 1017.88 1018.38 1018.82 1019.19 1019.51 1019.78 1020.00 1020.16 1020.25 1020.27
1012.02 1011.42 1010.87 1010.35 1009.84 1009.33 1008.82 1008.31 1007.82 1007.36 1006.97 1006.67 1006.46 1006.36 1006.38 1006.50 1006.70 1006.98 1007.31 1007.69 1008.09 1008.53 1008.99 1009.50 1010.05 1010.65 1011.30 1011.99 1012.72 1013.47 1014.22 1014.96 1015.67 1016.33 1016.93 1017.48 1017.97 1018.40 1018.78 1019.10 1019.37 1019.57 1019.71 1019.76
Thickness
5728 5717 5701 5698 5700 5698 5697 5693 5691 5689 5680 5673 5669 5672 5679 5667 5658 5653 5651 5647 5642 5638 5632 5622 5610 5596 5582 5569 5555 5542 5530 5518 5507 5496 5485 5473 5462 5451 5439 5425 5408 5391 5371 5350
5715 5704 5702 5704 5701 5697 5695 5690 5691 5687 5677 5674 5672 5674 5684 5679 5665 5660 5655 5652 5647 5642 5634 5624 5611 5596 5582 5568 5553 5539 5526 5513 5501 5489 5476 5465 5453 5441 5428 5414 5396 5377 5356 5335
5709 5698 5702 5699 5699 5695 5696 5691 5684 5679 5683 5680 5668 5675 5680 5680 5675 5666 5661 5657 5654 5647 5638 5627 5613 5597 5581 5566 5552 5538 5521 5506 5494 5481 5468 5456 5444 5431 5417 5401 5382 5363 5343 5323
5704 5700 5698 5694 5696 5692 5689 5686 5682 5677 5668 5675 5675 5662 5675 5674 5667 5666 5662 5657 5654 5650 5642 5630 5615 5598 5581 5565 5549 5533 5516 5500 5487 5474 5460 5446 5432 5418 5405 5389 5371 5352 5332 5312
5700 5696 5693 5691 5694 5688 5687 5684 5678 5675 5671 5670 5676 5665 5678 5680 5670 5671 5668 5663 5657 5651 5643 5631 5617 5599 5581 5562 5544 5527 5511 5494 5480 5467 5453 5438 5424 5410 5395 5379 5361 5342 5322 5302
5696 5697 5696 5693 5691 5689 5686 5682 5677 5672 5667 5663 5682 5670 5677 5679 5686 5685 5678 5671 5663 5654 5643 5631 5615 5596 5576 5557 5539 5522 5505 5489 5475 5460 5446 5431 5416 5401 5385 5369 5351 5332 5313 5295
5686 5690 5692 5690 5684 5683 5678 5672 5666 5662 5653 5671 5682 5671 5677 5698 5698 5692 5682 5673 5664 5654 5640 5625 5608 5591 5571 5552 5534 5517 5501 5485 5470 5455 5440 5425 5410 5394 5378 5361 5342 5324 5306 5289
5690 5684 5686 5686 5684 5679 5685 5676 5662 5656 5664 5672 5671 5666 5691 5703 5699 5693 5684 5674 5663 5651 5637 5623 5606 5588 5569 5549 5531 5514 5498 5482 5467 5451 5435 5420 5404 5388 5372 5354 5336 5317 5300 5284
5687 5681 5680 5682 5681 5675 5678 5677 5674 5662 5668 5658 5668 5688 5699 5697 5690 5683 5675 5666 5657 5648 5636 5620 5603 5585 5567 5548 5530 5513 5496 5480 5464 5447 5430 5414 5399 5383 5366 5349 5331 5313 5297 5281
5680 5676 5676 5672 5671 5670 5668 5669 5663 5656 5648 5643 5666 5680 5680 5678 5680 5679 5671 5664 5658 5649 5634 5618 5601 5583 5566 5548 5529 5511 5495 5478 5462 5444 5427 5411 5395 5378 5362 5345 5327 5311 5294 5278
5675 5667 5669 5665 5662 5667 5660 5661 5659 5659 5657 5638 5640 5665 5704 5694 5694 5687 5680 5674 5664 5650 5634 5617 5600 5582 5564 5545 5527 5509 5492 5476 5459 5441 5424 5407 5391 5375 5359 5342 5325 5309 5292 5276
5670 5662 5661 5671 5674 5671 5673 5670 5663 5648 5650 5646 5634 5658 5707 5704 5699 5691 5682 5675 5666 5652 5633 5615 5597 5579 5561 5543 5525 5507 5491 5474 5457 5440 5422 5404 5388 5372 5356 5340 5324 5307 5291 5275
5662 5651 5650 5657 5656 5656 5657 5663 5664 5659 5648 5640 5636 5662 5701 5699 5693 5686 5677 5670 5661 5647 5629 5611 5594 5577 5560 5542 5524 5507 5490 5474 5457 5439 5420 5402 5386 5371 5355 5339 5323 5306 5291 5276
5651 5645 5645 5651 5654 5657 5651 5656 5656 5647 5636 5637 5648 5667 5688 5684 5681 5680 5675 5667 5656 5642 5625 5608 5592 5576 5560 5542 5525 5508 5491 5474 5456 5438 5419 5401 5385 5370 5354 5338 5321 5305 5290 5276
5640 5637 5648 5654 5659 5658 5656 5658 5652 5646 5650 5648 5663 5671 5685 5685 5683 5681 5677 5668 5655 5639 5622 5607 5592 5577 5560 5543 5526 5509 5491 5474 5456 5437 5419 5401 5384 5368 5352 5336 5320 5305 5291 5277
5633 5631 5640 5645 5653 5651 5648 5656 5655 5651 5653 5656 5660 5668 5688 5682 5681 5677 5671 5663 5650 5638 5624 5609 5593 5578 5562 5545 5528 5510 5492 5474 5456 5437 5418 5401 5383 5366 5351 5335 5321 5306 5293 5280
5626 5624 5626 5628 5647 5638 5638 5664 5660 5656 5663 5657 5651 5666 5678 5676 5675 5671 5666 5659 5650 5640 5628 5611 5596 5581 5565 5549 5531 5511 5493 5474 5455 5436 5418 5401 5383 5366 5351 5336 5322 5308 5295 5283
5626 5622 5618 5618 5630 5616 5664 5681 5676 5665 5667 5663 5663 5667 5668 5667 5668 5665 5659 5653 5648 5642 5630 5614 5598 5582 5566 5549 5530 5511 5492 5473 5454 5436 5419 5401 5384 5367 5352 5337 5323 5309 5297 5286
5620 5618 5614 5607 5604 5622 5658 5672 5665 5657 5657 5669 5663 5663 5663 5663 5656 5657 5661 5657 5650 5643 5631 5616 5599 5582 5565 5548 5530 5510 5491 5473 5454 5437 5421 5404 5386 5369 5353 5339 5325 5313 5301 5289
5604 5604 5599 5597 5591 5603 5651 5662 5660 5652 5644 5672 5666 5660 5658 5651 5635 5650 5661 5657 5648 5640 5626 5611 5595 5579 5563 5547 5529 5509 5492 5474 5457 5442 5425 5408 5390 5372 5356 5343 5330 5318 5305 5292
5585 5589 5587 5587 5587 5612 5654 5646 5642 5631 5649 5675 5666 5659 5653 5640 5643 5650 5651 5645 5637 5628 5617 5603 5590 5576 5561 5545 5527 5510 5494 5478 5463 5445 5428 5411 5394 5377 5361 5347 5334 5321 5308 5295
5597 5586 5588 5590 5583 5608 5649 5634 5634 5650 5667 5668 5662 5656 5649 5645 5646 5645 5640 5633 5625 5615 5606 5595 5582 5570 5557 5542 5526 5511 5497 5483 5465 5447 5430 5414 5397 5381 5366 5351 5337 5324 5310 5297
5614 5618 5613 5611 5625 5649 5644 5646 5651 5653 5651 5654 5651 5648 5642 5636 5636 5636 5632 5626 5617 5607 5597 5588 5575 5562 5552 5540 5527 5514 5500 5484 5466 5448 5431 5415 5400 5384 5369 5354 5340 5326 5313 5299
5619 5624 5617 5617 5632 5641 5640 5640 5643 5643 5642 5644 5641 5638 5634 5628 5628 5627 5625 5618 5611 5601 5591 5580 5568 5558 5549 5539 5526 5515 5500 5485 5467 5449 5433 5417 5402 5387 5372 5358 5344 5330 5316 5301
5615 5604 5599 5607 5624 5628 5635 5637 5639 5640 5639 5638 5637 5635 5630 5625 5623 5622 5619 5614 5605 5595 5585 5575 5567 5559 5549 5537 5524 5512 5500 5484 5467 5450 5434 5420 5406 5390 5375 5361 5347 5334 5321 5307
5608 5597 5593 5606 5619 5611 5621 5634 5634 5629 5630 5630 5628 5628 5627 5620 5617 5616 5613 5610 5601 5591 5580 5571 5563 5556 5547 5535 5523 5511 5499 5484 5468 5451 5436 5422 5407 5392 5377 5362 5349 5339 5326 5314